Weather History for Montpelier, VT

Change the Weather History Date:

Saturday, October 22, 2011

  Actual Average Record
Temperature  
Mean Temperature 46 °F 44 °F  
Max Temperature 49 °F 54 °F 80 °F (1979)
Min Temperature 42 °F 33 °F 15 °F (1959)
Degree Days  
Heating Degree Days 19 21  
Month to date heating degree days 285 394  
Since 1 July heating degree days 449 749  
Cooling Degree Days 0 0  
Month to date cooling degree days 0 0  
Year to date cooling degree days 308 263  
Moisture  
Dew Point 42 °F    
Average Humidity 85    
Maximum Humidity 93    
Minimum Humidity 76    
Precipitation  
Precipitation 0.04 in 0.11 in 0.55 in (1969)
Month to date precipitation 3.13 2.51  
Year to date precipitation 49.05 30.43  
Sea Level Pressure  
Sea Level Pressure 30.03 in    
Wind  
Wind Speed 2 mph (WNW)    
Max Wind Speed 8 mph    
Max Gust Speed 10 mph    
Visibility 10 miles    
Events Rain    
T = Trace of Precipitation, MM = Missing Value Source: NWS Daily Summary

Daily Weather History Graph

Daily Weather History Graph

Search for Another Location

Airport:

Trip Planner

Search our weather history database for the weather conditions in past years. The results will help you decide how hot, cold, wet, or windy it might be!

Date:

Astronomy

Oct. 22, 2011 Rise Set
Actual Time 7:13 AM EDT 5:55 PM EDT
Civil Twilight 6:44 AM EDT 6:24 PM EDT
Nautical Twilight 6:10 AM EDT 6:58 PM EDT
Astronomical Twilight 5:36 AM EDT 7:31 PM EDT
Moon 1:57 AM EDT (10/22) 3:20 PM EDT (10/22)
Length of Visible Light 11h 40m
Length of Day
10h 41m
Waning Crescent, 24% of the Moon is Illuminated
Oct 22
Waning Crescent
Oct 26
New
Nov 2
First Quarter
Nov 10
Full
Nov 18
Last Quarter

Hourly Weather History & Observations

Time (EDT) Temp. Windchill Dew Point Humidity Pressure Visibility Wind Dir Wind Speed Gust Speed Precip Events Conditions
12:51 AM 46.9 °F - 39.9 °F 77% 29.96 in 10.0 mi SW 3.5 mph - N/A   Mostly Cloudy
1:51 AM 46.9 °F - 39.9 °F 77% 29.96 in 10.0 mi SSW 3.5 mph - N/A   Overcast
2:51 AM 46.0 °F 44.8 °F 41.0 °F 83% 29.97 in 10.0 mi SSW 3.5 mph - N/A   Overcast
3:51 AM 46.9 °F - 41.0 °F 80% 29.97 in 10.0 mi SSW 4.6 mph - 0.00 in   Overcast
4:51 AM 46.9 °F - 39.9 °F 77% 29.98 in 10.0 mi SW 3.5 mph - N/A   Overcast
5:51 AM 46.9 °F - 39.9 °F 77% 29.99 in 10.0 mi South 4.6 mph - N/A   Overcast
6:41 AM 46.4 °F - 41.0 °F 81% 29.97 in 10.0 mi Calm Calm - N/A   Overcast
6:51 AM 46.0 °F - 41.0 °F 83% 30.00 in 10.0 mi Calm Calm - N/A   Overcast
7:13 AM 46.4 °F - 41.0 °F 81% 29.98 in 10.0 mi Calm Calm - 0.00 in Rain Light Rain
7:51 AM 44.6 °F - 42.8 °F 93% 29.99 in 10.0 mi Calm Calm - N/A   Overcast
8:51 AM 46.0 °F - 41.0 °F 83% 30.03 in 10.0 mi Calm Calm - N/A   Overcast
9:51 AM 46.9 °F - 42.1 °F 83% 30.03 in 10.0 mi Calm Calm - 0.01 in   Overcast
10:23 AM 44.6 °F 41.4 °F 44.6 °F 100% 30.02 in 9.0 mi North 5.8 mph - 0.00 in Rain Light Rain
10:42 AM 44.6 °F - 42.8 °F 93% 30.02 in 4.0 mi Calm Calm - 0.01 in Rain Light Rain
10:51 AM 46.0 °F 44.8 °F 44.1 °F 93% 30.05 in 10.0 mi NNW 3.5 mph - 0.01 in Rain Light Rain
10:58 AM 46.4 °F 45.2 °F 44.6 °F 93% 30.02 in 10.0 mi North 3.5 mph - 0.00 in   Overcast
11:20 AM 46.4 °F 45.2 °F 44.6 °F 93% 30.03 in 10.0 mi NNW 3.5 mph - 0.01 in Rain Light Rain
11:32 AM 46.4 °F - 44.6 °F 93% 30.03 in 10.0 mi Calm Calm - 0.01 in   Overcast
11:46 AM 46.4 °F 43.5 °F 42.8 °F 87% 30.03 in 10.0 mi North 5.8 mph - 0.01 in   Overcast
11:51 AM 46.0 °F 43.9 °F 43.0 °F 89% 30.05 in 9.0 mi NNW 4.6 mph - 0.01 in   Overcast
12:51 PM 46.9 °F - 42.1 °F 83% 30.04 in 10.0 mi Calm Calm - 0.00 in   Overcast
1:51 PM 48.9 °F - 42.1 °F 77% 30.03 in 10.0 mi Calm Calm - 0.00 in Rain Light Rain
2:07 PM 48.2 °F - 42.8 °F 82% 30.01 in 10.0 mi Calm Calm - 0.00 in   Overcast
2:51 PM 48.0 °F - 43.0 °F 83% 30.04 in 7.0 mi Calm Calm - 0.00 in Rain Light Rain
3:05 PM 48.2 °F - 42.8 °F 82% 30.02 in 10.0 mi Calm Calm - 0.00 in   Overcast
3:21 PM 48.2 °F - 42.8 °F 82% 30.02 in 10.0 mi NW 4.6 mph - 0.00 in   Overcast
3:44 PM 46.4 °F 44.3 °F 42.8 °F 87% 30.03 in 9.0 mi Variable 4.6 mph - 0.01 in Rain Light Rain
3:51 PM 46.9 °F - 42.1 °F 83% 30.05 in 9.0 mi Variable 4.6 mph - 0.01 in Rain Light Rain
4:51 PM 46.0 °F 43.9 °F 42.1 °F 86% 30.06 in 10.0 mi NNW 4.6 mph - 0.00 in   Overcast
5:51 PM 44.6 °F - 42.8 °F 93% 30.04 in 10.0 mi Calm Calm - N/A   Overcast
6:51 PM 45.0 °F - 43.0 °F 93% 30.08 in 10.0 mi Calm Calm - N/A   Overcast
7:31 PM 44.6 °F - 42.8 °F 93% 30.07 in 10.0 mi Calm Calm - N/A   Overcast
7:51 PM 44.1 °F - 43.0 °F 96% 30.09 in 10.0 mi Calm Calm - N/A   Overcast
8:36 PM 44.6 °F - 42.8 °F 93% 30.07 in 10.0 mi Calm Calm - 0.00 in   Overcast
8:51 PM 45.0 °F - 43.0 °F 93% 30.10 in 10.0 mi Calm Calm - 0.00 in   Overcast
9:51 PM 45.0 °F 43.5 °F 41.0 °F 86% 30.12 in 10.0 mi NW 3.5 mph - N/A   Overcast
10:51 PM 45.0 °F - 41.0 °F 86% 30.11 in 10.0 mi Calm Calm - N/A   Overcast
11:51 PM 44.1 °F - 41.0 °F 89% 30.12 in 10.0 mi Calm Calm - N/A   Overcast